Погода в Меловом

Россия / Орловская область     53°01′43″N   35°26′12″E
темп.,
°C
ветер,
м/с
пор.,
м/с
влажн.,
%
обл.,
%
осадки,
мм/ч
давл.,
гПа
погр.,
м
4 марта, чт
чт400:00−2з5119296 0.0 1016334
03:00−2зюз6129177 0.0 1015339
06:00−2зюз7139160 0.0 1011357
09:00−2зюз8158346 0.0 1009550
12:00+1зюз7139072 0.0 1007699
15:00+2зюз5119482 0.0 1005747
18:00+2з4119099 0.1 1003423
21:000сз499899 0.1 1003527
5 марта, пт
пт500:00−2зсз3794100 0.1 1004241
03:00−2сз3597100 0.1 1005190
06:00−3с239399 0.2 100795
09:00−3ссз2490100 0.2 1008175
12:00−1ссз238036 0.0 1009535
15:000ссз137059 0.0 1011839
18:00−3ссв128187 0.1 101222
21:00−4св239192 0.1 101451
6 марта, сб
сб600:00−6ссв228682 0.0 101522
03:00−7всв118542 0.0 101521
06:00−7ю11850 0.0 101521
09:00−6ю248918 0.0 1016147
12:00−3з2386100 0.2 1016444
15:00−3зсз4577100 0.6 1017758
18:00−5ссз6118269 0.2 1018668
21:00−7сз358552 0.2 1020122
7 марта, вс
вс700:00−8зюз47850 0.0 1020200
03:00−7юз613790 0.0 1017411
06:00−6юз8167174 0.0 1013644
09:00−4юз10187087 0.0 1009970
12:00−3зюз121987100 0.4 10051241
15:00−1зюз122085100 0.7 10021434
18:000зюз112078100 0.1 10011334
21:00−4сз51195100 4.2 1003917
8 марта, пн
пн800:00−6з5137949 0.2 1003374
03:00−6з7148258 0.3 1004891
06:00−8зсз6138553 0.0 1005674
09:00−8зсз698856 0.0 1008983
12:00−7зсз5774100 0.1 10091080
15:00−6сз4679100 0.1 1011928
18:00−7сз3686100 0.1 1012284
21:00−8зсз2594100 0.2 1014201